Weather History for KLDJ - August, 2014

Change the Weather History Date:

Friday, August 29, 2014

  Actual Average (KEWR) Record (KEWR)
Temperature  
Mean Temperature 72 °F 74 °F  
Max Temperature 82 °F 82 °F 100 °F (1953)
Min Temperature 62 °F 66 °F 45 °F (1982)
Degree Days  
Heating Degree Days 0 0  
Month to date heating degree days 0  
Since 1 June heating degree days 17  
Since 1 July heating degree days 0  
Cooling Degree Days 7 9  
Month to date cooling degree days 318  
Year to date cooling degree days 1016  
Since 1 June cooling degree days 940  
Growing Degree Days 22 (Base 50)    
Moisture  
Dew Point 53 °F    
Average Humidity 52    
Maximum Humidity 72    
Minimum Humidity 33    
Precipitation  
Precipitation 0.00 in 0.09 in 1.83 in (2002)
Month to date precipitation 3.51  
Year to date precipitation 31.18  
Snow  
Snow 0.00 in 0.00 in 0.00 in (2002)
Month to date snowfall 0.0  
Since 1 July snowfall 0.0  
Snow Depth -    
Sea Level Pressure  
Sea Level Pressure 30.18 in    
Wind  
Wind Speed 4 mph (North)    
Max Wind Speed 12 mph    
Max Gust Speed 16 mph    
Visibility 10 miles    
Events      
T = Trace of Precipitation, MM = Missing Value Source: NWS Daily Summary

Daily Weather History Graph

Daily Weather History Graph

Search for Another Location

Airport or City:

Trip Planner

Search our weather history database for the weather conditions in past years. The results will help you decide how hot, cold, wet, or windy it might be!

Date:

Astronomy

Aug. 29, 2014 Rise Set
Actual Time 6:21 AM EDT 7:33 PM EDT
Civil Twilight 5:52 AM EDT 8:02 PM EDT
Nautical Twilight 5:19 AM EDT 8:35 PM EDT
Astronomical Twilight 4:43 AM EDT 9:11 PM EDT
Moon 10:09 AM EDT (8/29) 9:28 PM EDT (8/29)
Length of Visible Light 14h 09m
Length of Day
13h 12m
Waxing Crescent, 15% of the Moon is Illuminated
Aug 29
Waxing Crescent
Sep 2
First Quarter
Sep 8
Full
Sep 15
Last Quarter
Sep 24
New

Hourly Weather History & Observations

Time (EDT) Temp. Dew Point Humidity Pressure Visibility Wind Dir Wind Speed Gust Speed Precip Events Conditions
12:15 AM 68.5 °F 50.0 °F 52% 30.09 in 10.0 mi NNW 4.6 mph - N/A   Clear
12:35 AM 68.2 °F 50.0 °F 52% 30.09 in 10.0 mi NNW 3.5 mph - N/A   Clear
12:55 AM 67.6 °F 50.4 °F 54% 30.10 in 10.0 mi NNW 3.5 mph - N/A   Clear
1:15 AM 67.3 °F 50.9 °F 56% 30.10 in 10.0 mi North 3.5 mph - N/A   Clear
1:35 AM 67.1 °F 50.9 °F 56% 30.09 in 10.0 mi North 4.6 mph - N/A   Clear
1:55 AM 67.1 °F 51.1 °F 56% 30.10 in 10.0 mi North 3.5 mph - N/A   Clear
2:15 AM 66.4 °F 51.4 °F 59% 30.10 in 10.0 mi Calm Calm - N/A   Clear
2:35 AM 65.5 °F 51.8 °F 61% 30.10 in 10.0 mi Calm Calm - N/A   Clear
2:55 AM 65.3 °F 51.8 °F 62% 30.10 in 10.0 mi NW 3.5 mph - N/A   Clear
3:15 AM 65.1 °F 52.0 °F 62% 30.10 in 10.0 mi NNW 3.5 mph - N/A   Clear
3:35 AM 64.8 °F 52.2 °F 64% 30.10 in 10.0 mi NW 3.5 mph - N/A   Clear
3:55 AM 64.4 °F 52.5 °F 65% 30.11 in 10.0 mi NW 3.5 mph - N/A   Clear
4:15 AM 63.9 °F 52.9 °F 67% 30.12 in 10.0 mi NW 4.6 mph - N/A   Clear
4:35 AM 63.5 °F 53.1 °F 69% 30.12 in 10.0 mi Calm Calm - N/A   Clear
4:55 AM 63.5 °F 52.9 °F 68% 30.12 in 10.0 mi NW 3.5 mph - N/A   Clear
5:15 AM 63.1 °F 52.9 °F 69% 30.13 in 10.0 mi NW 3.5 mph - N/A   Clear
5:35 AM 62.8 °F 53.1 °F 71% 30.14 in 10.0 mi NW 4.6 mph - N/A   Clear
5:55 AM 62.8 °F 53.6 °F 72% 30.15 in 10.0 mi NW 4.6 mph - N/A   Clear
6:15 AM 62.6 °F 53.2 °F 71% 30.15 in 10.0 mi Calm Calm - N/A   Clear
6:35 AM 62.6 °F 53.6 °F 72% 30.16 in 10.0 mi NNW 3.5 mph - N/A   Clear
6:55 AM 63.3 °F 54.3 °F 72% 30.17 in 10.0 mi NNW 4.6 mph - N/A   Clear
7:15 AM 65.1 °F 54.5 °F 68% 30.17 in 10.0 mi NW 4.6 mph - N/A   Clear
7:35 AM 66.2 °F 54.7 °F 66% 30.18 in 10.0 mi NW 4.6 mph - N/A   Clear
7:55 AM 66.9 °F 54.7 °F 65% 30.19 in 10.0 mi NNW 4.6 mph - N/A   Clear
8:15 AM 67.8 °F 54.5 °F 62% 30.19 in 10.0 mi North 6.9 mph - N/A   Clear
8:35 AM 69.3 °F 54.7 °F 60% 30.20 in 10.0 mi North 4.6 mph - N/A   Clear
8:55 AM 70.3 °F 55.2 °F 59% 30.20 in 10.0 mi North 4.6 mph - N/A   Clear
9:15 AM 71.8 °F 54.1 °F 54% 30.20 in 10.0 mi North 3.5 mph - N/A   Clear
9:35 AM 73.4 °F 53.1 °F 49% 30.21 in 10.0 mi NW 4.6 mph - N/A   Clear
9:55 AM 75.2 °F 52.7 °F 45% 30.20 in 10.0 mi North 6.9 mph - N/A   Clear
10:15 AM 75.7 °F 51.4 °F 43% 30.21 in 10.0 mi NNE 5.8 mph - N/A   Clear
10:35 AM 77.4 °F 50.9 °F 39% 30.20 in 3.0 mi NE 6.9 mph - N/A   Haze
11:15 AM 78.1 °F 50.4 °F 38% 30.21 in 10.0 mi NE 5.8 mph - N/A   Clear
11:35 AM 78.6 °F 50.0 °F 37% 30.21 in 10.0 mi NNE 5.8 mph - N/A   Clear
11:55 AM 78.6 °F 50.2 °F 37% 30.21 in 10.0 mi NNE 4.6 mph - N/A   Clear
12:15 PM 78.1 °F 49.5 °F 37% 30.20 in 10.0 mi Calm Calm - N/A   Clear
12:35 PM 79.9 °F 49.3 °F 34% 30.20 in 10.0 mi ESE 6.9 mph - N/A   Clear
12:55 PM 80.4 °F 49.8 °F 34% 30.20 in 7.0 mi ESE 9.2 mph - N/A   Clear
1:15 PM 81.1 °F 50.2 °F 34% 30.20 in 5.0 mi East 8.1 mph - N/A   Haze
1:35 PM 80.6 °F 50.4 °F 35% 30.19 in 10.0 mi NW 4.6 mph - N/A   Clear
1:55 PM 81.0 °F 50.2 °F 34% 30.19 in 10.0 mi ESE 4.6 mph - N/A   Clear
2:15 PM 80.8 °F 50.0 °F 34% 30.19 in 10.0 mi East 3.5 mph - N/A   Clear
2:35 PM 82.2 °F 50.7 °F 33% 30.19 in 10.0 mi SE 5.8 mph - N/A   Clear
2:55 PM 82.9 °F 51.4 °F 33% 30.18 in 10.0 mi South 11.5 mph 16.1 mph N/A   Clear
3:15 PM 81.3 °F 52.0 °F 36% 30.18 in 10.0 mi SSE 8.1 mph - N/A   Clear
3:35 PM 81.0 °F 51.1 °F 35% 30.18 in 10.0 mi South 4.6 mph - N/A   Clear
4:15 PM 81.5 °F 50.9 °F 34% 30.18 in 10.0 mi Calm Calm - N/A   Clear
4:35 PM 81.5 °F 50.9 °F 34% 30.18 in 10.0 mi South 4.6 mph - N/A   Clear
4:55 PM 81.9 °F 52.0 °F 35% 30.18 in 10.0 mi SSE 9.2 mph - N/A   Clear
5:15 PM 81.7 °F 52.5 °F 36% 30.18 in 10.0 mi SSE 10.4 mph - N/A   Clear
5:35 PM 79.9 °F 52.2 °F 38% 30.19 in 10.0 mi SSE 10.4 mph - N/A   Clear
6:15 PM 78.4 °F 54.9 °F 44% 30.20 in 10.0 mi South 8.1 mph - N/A   Clear
6:35 PM 78.1 °F 53.8 °F 43% 30.20 in 10.0 mi SSE 10.4 mph - N/A   Clear
6:55 PM 77.2 °F 54.3 °F 45% 30.21 in 10.0 mi SSE 9.2 mph - N/A   Clear
7:15 PM 77.0 °F 54.5 °F 46% 30.21 in 10.0 mi SSE 9.2 mph - N/A   Clear
7:35 PM 76.3 °F 54.7 °F 47% 30.21 in 10.0 mi South 5.8 mph - N/A   Clear
7:55 PM 75.4 °F 54.5 °F 48% 30.22 in 10.0 mi South 5.8 mph - N/A   Clear
8:15 PM 74.7 °F 54.9 °F 50% 30.22 in 10.0 mi South 5.8 mph - N/A   Clear
8:35 PM 74.5 °F 55.0 °F 51% 30.23 in 10.0 mi South 5.8 mph - N/A   Clear
8:55 PM 73.9 °F 55.4 °F 52% 30.25 in 10.0 mi South 6.9 mph - N/A   Clear
9:15 PM 73.9 °F 55.8 °F 53% 30.25 in 10.0 mi South 4.6 mph - N/A   Clear
9:35 PM 73.4 °F 56.1 °F 55% 30.25 in 10.0 mi South 4.6 mph - N/A   Clear
9:55 PM 72.9 °F 56.3 °F 56% 30.26 in 10.0 mi South 4.6 mph - N/A   Clear
10:15 PM 72.0 °F 56.8 °F 59% 30.26 in 10.0 mi Calm Calm - N/A   Clear
10:35 PM 71.8 °F 57.2 °F 60% 30.26 in 10.0 mi Calm Calm - N/A   Clear
11:15 PM 71.1 °F 57.2 °F 61% 30.26 in 10.0 mi Calm Calm - N/A   Clear
11:35 PM 71.8 °F 57.6 °F 61% 30.26 in 10.0 mi Calm Calm - N/A   Clear
11:55 PM 70.7 °F 57.9 °F 64% 30.27 in 10.0 mi Calm Calm - N/A   Clear